Garden City, GA

7:23 PM EST on February 13, 2016 (GMT -0500)
Savannah International

Weather History for KSAV - March, 2013

Change the Weather History Date:

Saturday, March 16, 2013

  Actual Average Record
Temperature  
Mean Temperature 65 °F 59 °F  
Max Temperature 80 °F 71 °F 87 °F (1977)
Min Temperature 50 °F 48 °F 26 °F (1890)
Degree Days  
Heating Degree Days 0 7  
Month to date heating degree days 212 130  
Since 1 July heating degree days 1434 1647  
Cooling Degree Days 0 1  
Month to date cooling degree days 0 16  
Year to date cooling degree days 28 26  
Growing Degree Days 15 (Base 50)    
Moisture  
Dew Point 40 °F    
Average Humidity 41    
Maximum Humidity 63    
Minimum Humidity 19    
Precipitation  
Precipitation 0.00 in 0.12 in 2.32 in (1972)
Month to date precipitation 0.14 1.93  
Year to date precipitation 10.44 8.41  
Snow  
Snow 0.00 in 0.00 in - ()
Month to date snowfall 0.0  
Since 1 July snowfall 0.0 0.3  
Snow Depth 0.00 in    
Sea Level Pressure  
Sea Level Pressure 30.02 in    
Wind  
Wind Speed 13 mph (WSW)    
Max Wind Speed 26 mph    
Max Gust Speed 37 mph    
Visibility 10 miles    
Events      
T = Trace of Precipitation, MM = Missing Value Source: NWS Daily Summary

Daily Weather History Graph

Daily Weather History Graph

Search for Another Location

Airport or City:

Trip Planner

Search our weather history database for the weather conditions in past years. The results will help you decide how hot, cold, wet, or windy it might be!

Date:

Astronomy

Mar. 16, 2013 Rise Set
Actual Time 7:33 AM EDT 7:33 PM EDT
Civil Twilight 7:08 AM EDT 7:58 PM EDT
Nautical Twilight 6:40 AM EDT 8:26 PM EDT
Astronomical Twilight 6:12 AM EDT 8:55 PM EDT
Moon 10:19 AM EDT (3/16) No Moon Set
Length of Visible Light 12h 49m
Length of Day
12h 00m
Waxing Crescent, 23% of the Moon is Illuminated
Mar 16
Waxing Crescent
Mar 19
First Quarter
Mar 27
Full
Apr 3
Last Quarter
Apr 10
New

Hourly Weather History & Observations

Time (EDT) Temp. Dew Point Humidity Pressure Visibility Wind Dir Wind Speed Gust Speed Precip Events Conditions
12:53 AM 55.0 °F 41.0 °F 59% 30.08 in 10.0 mi SSW 9.2 mph - N/A   Clear
1:53 AM 57.0 °F 37.9 °F 49% 30.07 in 10.0 mi SW 8.1 mph - N/A   Clear
2:53 AM 57.0 °F 37.9 °F 49% 30.06 in 10.0 mi SW 9.2 mph - N/A   Clear
3:53 AM 55.9 °F 37.9 °F 51% 30.05 in 10.0 mi WSW 10.4 mph - N/A   Clear
4:53 AM 55.0 °F 37.9 °F 53% 30.05 in 10.0 mi WSW 10.4 mph - N/A   Clear
5:53 AM 52.0 °F 39.0 °F 61% 30.05 in 10.0 mi West 8.1 mph - N/A   Clear
6:53 AM 51.1 °F 39.0 °F 63% 30.07 in 10.0 mi West 5.8 mph - N/A   Clear
7:53 AM 51.1 °F 39.0 °F 63% 30.08 in 10.0 mi WSW 5.8 mph - N/A   Mostly Cloudy
8:53 AM 55.0 °F 42.1 °F 62% 30.09 in 10.0 mi West 11.5 mph - N/A   Mostly Cloudy
9:53 AM 62.1 °F 42.1 °F 48% 30.08 in 10.0 mi West 13.8 mph 20.7 mph N/A   Clear
10:53 AM 66.9 °F 41.0 °F 39% 30.07 in 10.0 mi West 19.6 mph - N/A   Clear
11:53 AM 72.0 °F 42.1 °F 34% 30.05 in 10.0 mi West 17.3 mph - N/A   Clear
12:53 PM 75.0 °F 41.0 °F 29% 30.03 in 10.0 mi West 21.9 mph 28.8 mph N/A   Clear
1:53 PM 77.0 °F 42.1 °F 29% 30.00 in 10.0 mi WSW 20.7 mph 26.5 mph N/A   Clear
2:53 PM 78.1 °F 42.1 °F 28% 29.97 in 10.0 mi WSW 20.7 mph 27.6 mph N/A   Clear
3:53 PM 79.0 °F 41.0 °F 26% 29.95 in 10.0 mi SW 18.4 mph 28.8 mph N/A   Partly Cloudy
4:53 PM 79.0 °F 39.0 °F 24% 29.93 in 10.0 mi SW 19.6 mph 31.1 mph N/A   Partly Cloudy
5:53 PM 78.1 °F 34.0 °F 20% 29.93 in 10.0 mi West 21.9 mph 29.9 mph N/A   Partly Cloudy
6:53 PM 75.9 °F 36.0 °F 23% 29.94 in 10.0 mi West 17.3 mph 25.3 mph N/A   Partly Cloudy
7:53 PM 72.0 °F 37.9 °F 29% 29.96 in 10.0 mi WSW 9.2 mph - N/A   Partly Cloudy
8:53 PM 69.1 °F 39.9 °F 35% 29.97 in 10.0 mi SW 6.9 mph - N/A   Clear
9:53 PM 66.9 °F 41.0 °F 39% 29.99 in 10.0 mi SW 5.8 mph - N/A   Clear
10:53 PM 64.9 °F 42.1 °F 43% 30.01 in 10.0 mi SW 8.1 mph - N/A   Clear
11:53 PM 64.9 °F 46.0 °F 50% 30.01 in 10.0 mi SW 10.4 mph - N/A   Clear